Fullerton, CA

12:52 AM PST on December 17, 2017 (GMT -0800)
Fullerton Municipal

Weather History for KFUL - March, 2011

Change the Weather History Date:

Friday, March 25, 2011

  Actual Average Record
Temperature  
Mean Temperature 58 °F 60 °F  
Max Temperature 64 °F 70 °F 87 °F (2015)
Min Temperature 51 °F 50 °F 45 °F (2005)
Degree Days  
Heating Degree Days 7 5  
Month to date heating degree days 148 140  
Since 1 July heating degree days 1116 1062  
Cooling Degree Days 0 0  
Month to date cooling degree days 1 8  
Year to date cooling degree days 2 17  
Growing Degree Days 8 (Base 50)    
Moisture  
Dew Point 50 °F    
Average Humidity 70    
Maximum Humidity 100    
Minimum Humidity 39    
Precipitation  
Precipitation 0.31 in 0.04 in 0.84 in (1950)
Month to date precipitation 2.45 1.95  
Year to date precipitation 4.80 8.23  
Since 1 July precipitation 16.28  
Snow  
Snow 0.00 in - - ()
Month to date snowfall 0.0  
Year to date snowfall 0.0  
Snow Depth 0.00 in    
Sea Level Pressure  
Sea Level Pressure 30.02 in    
Wind  
Wind Speed 5 mph (South)    
Max Wind Speed 12 mph    
Max Gust Speed 17 mph    
Visibility 6 miles    
Events Rain    
T = Trace of Precipitation, MM = Missing Value Source: NWS Daily Summary

Daily Weather History Graph

Daily Weather History Graph

Search for Another Location

Airport or City:

Trip Planner

Search our weather history database for the weather conditions in past years. The results will help you decide how hot, cold, wet, or windy it might be!

Date:

Astronomy

Mar. 25, 2011 Rise Set
Actual Time 6:49 AM PDT 7:07 PM PDT
Civil Twilight 6:24 AM PDT 7:32 PM PDT
Nautical Twilight 5:54 AM PDT 8:01 PM PDT
Astronomical Twilight 5:25 AM PDT 8:31 PM PDT
Moon 1:08 AM PDT (3/25) 11:12 AM PDT (3/25)
Length of Visible Light 13h 08m
Length of Day
12h 18m
Waning Gibbous, 58% of the Moon is Illuminated
Mar 25
Waning Gibbous
Mar 26
Last Quarter
Apr 3
New
Apr 11
First Quarter
Apr 17
Full

Hourly Weather History & Observations

Time (PDT) Temp. Dew Point Humidity Pressure Visibility Wind Dir Wind Speed Gust Speed Precip Events Conditions
12:23 AM 51.8 °F 50.0 °F 94% 30.06 in 2.0 mi Calm Calm - 0.05 in Rain Rain
12:53 AM 51.1 °F 50.0 °F 96% 30.06 in 3.0 mi Calm Calm - 0.11 in Rain Rain
1:53 AM 52.0 °F 51.1 °F 97% 30.04 in 2.0 mi East 5.8 mph - 0.01 in Rain Light Rain
2:08 AM 51.8 °F 51.8 °F 100% 30.03 in 4.0 mi East 4.6 mph - 0.01 in Rain Light Rain
2:16 AM 51.8 °F 51.8 °F 100% 30.03 in 6.0 mi East 5.8 mph - 0.01 in Rain Light Rain
2:53 AM 52.0 °F 51.1 °F 97% 30.03 in 6.0 mi ESE 5.8 mph - 0.01 in Rain Light Rain
4:49 AM 51.8 °F 51.8 °F 100% 29.99 in 8.0 mi East 4.6 mph - 0.00 in   Overcast
4:53 AM 52.0 °F 51.1 °F 97% 29.99 in 8.0 mi East 4.6 mph - 0.00 in   Overcast
5:32 AM 51.8 °F 51.8 °F 100% 29.99 in 2.5 mi SSE 3.5 mph - 0.02 in Rain Rain
5:37 AM 53.6 °F 51.8 °F 94% 29.99 in 2.5 mi Calm Calm - 0.03 in Rain Light Rain
5:48 AM 53.6 °F 51.8 °F 94% 29.99 in 3.0 mi Calm Calm - 0.05 in Rain Rain
5:53 AM 53.1 °F 52.0 °F 96% 30.00 in 5.0 mi Calm Calm - 0.05 in Rain Light Rain
6:09 AM 53.6 °F 51.8 °F 94% 29.99 in 5.0 mi ESE 6.9 mph - 0.00 in Rain Light Rain
6:19 AM 53.6 °F 51.8 °F 94% 29.99 in 2.5 mi SE 3.5 mph - 0.02 in Rain Light Rain
6:41 AM 51.8 °F 51.8 °F 100% 30.00 in 1.5 mi West 3.5 mph - 0.07 in Rain Heavy Rain
6:50 AM 51.8 °F 51.8 °F 100% 30.00 in 1.5 mi Calm Calm - 0.10 in Rain Heavy Rain
6:53 AM 52.0 °F 52.0 °F 100% 30.01 in 1.5 mi Calm Calm - 0.11 in Rain Heavy Rain
7:03 AM 51.8 °F 51.8 °F 100% 30.01 in 1.8 mi Calm Calm - 0.04 in Rain Rain
7:13 AM 53.6 °F 51.8 °F 94% 30.01 in 0.8 mi Calm Calm - 0.07 in Rain Rain
7:18 AM 53.6 °F 51.8 °F 94% 30.01 in 1.0 mi Calm Calm - 0.09 in Rain Rain
7:25 AM 53.6 °F 51.8 °F 94% 30.01 in 1.5 mi SSW 3.5 mph - 0.11 in Rain Light Rain
7:33 AM 53.6 °F 51.8 °F 94% 30.01 in 2.5 mi South 4.6 mph - 0.12 in Rain Light Rain
7:36 AM 53.6 °F 51.8 °F 94% 30.01 in 3.0 mi SSW 4.6 mph - 0.12 in Rain Light Rain
7:53 AM 53.1 °F 53.1 °F 100% 30.02 in 6.0 mi SW 3.5 mph - 0.12 in Rain Light Rain
8:00 AM 53.6 °F 53.6 °F 100% 30.02 in 8.0 mi Variable 3.5 mph - 0.00 in   Overcast
8:53 AM 55.0 °F 53.1 °F 93% 30.03 in 10.0 mi Variable 3.5 mph - 0.00 in   Overcast
9:00 AM 55.4 °F 51.8 °F 88% 30.03 in 10.0 mi Calm Calm - N/A   Overcast
9:07 AM 55.4 °F 53.6 °F 94% 30.03 in 10.0 mi Calm Calm - N/A   Overcast
9:53 AM 57.0 °F 52.0 °F 83% 30.04 in 10.0 mi Calm Calm - N/A   Overcast
10:00 AM 57.2 °F 51.8 °F 82% 30.04 in 10.0 mi Variable 3.5 mph - N/A   Overcast
10:09 AM 57.2 °F 51.8 °F 82% 30.04 in 10.0 mi Variable 3.5 mph - N/A   Overcast
10:33 AM 59.0 °F 51.8 °F 77% 30.04 in 10.0 mi Variable 4.6 mph - N/A   Mostly Cloudy
10:53 AM 59.0 °F 50.0 °F 72% 30.05 in 10.0 mi WSW 4.6 mph - N/A   Mostly Cloudy
11:53 AM 60.1 °F 46.0 °F 60% 30.04 in 10.0 mi Variable 5.8 mph - N/A   Overcast
12:53 PM 61.0 °F 44.1 °F 54% 30.03 in 10.0 mi SW 9.2 mph - N/A   Overcast
1:53 PM 64.0 °F 43.0 °F 46% 30.01 in 10.0 mi WSW 8.1 mph - N/A   Overcast
2:53 PM 63.0 °F 39.9 °F 43% 30.00 in 10.0 mi WSW 9.2 mph - N/A   Mostly Cloudy
3:53 PM 62.1 °F 37.9 °F 41% 30.00 in 10.0 mi Variable 5.8 mph - N/A   Partly Cloudy
4:53 PM 61.0 °F 39.9 °F 46% 29.99 in 10.0 mi Variable 5.8 mph - N/A   Scattered Clouds
5:53 PM 59.0 °F 43.0 °F 55% 30.00 in 10.0 mi Variable 5.8 mph - N/A   Partly Cloudy
6:53 PM 57.0 °F 43.0 °F 59% 30.01 in 10.0 mi WSW 5.8 mph - N/A   Clear
7:53 PM 55.0 °F 45.0 °F 69% 30.01 in 10.0 mi Variable 4.6 mph - N/A   Clear
9:53 PM 53.1 °F 46.9 °F 80% 30.04 in 10.0 mi Calm Calm - N/A   Clear
10:53 PM 53.1 °F 46.9 °F 80% 30.04 in 10.0 mi Calm Calm - N/A   Clear
11:53 PM 52.0 °F 46.0 °F 80% 30.04 in 10.0 mi Calm Calm - N/A   Partly Cloudy